[[{"header":{"parameterUnit":"m.s-1","parameterCategory":1,"la1":30.2992,"la2":30.254,"lo1":-89.0895,"lo2":-89.0443,"dy":0.0025,"dx":0.0025,"nx":19,"ny":19,"refTime":"2026-05-18T21:00:00:Z","depth":0,"parameterNumber":2,"parameterNumberName":"U-component_of_WINDS"},"data":[0,0,0,-4.5671,-4.5674,-4.5817,-4.5818,-4.6008,-4.601,0,0,0,0,0,0,0,0,0,0,0,-4.5633,-4.5635,-4.567,-4.5674,-4.5817,-4.5818,-4.6008,-4.601,0,0,0,0,0,0,0,0,0,0,0,-4.5633,-4.5634,-4.5636,-4.5675,-4.5817,-4.5818,-4.6007,-4.5896,0,0,0,0,0,0,0,0,0,0,-4.5756,-4.5727,-4.5634,-4.5636,-4.5676,-4.5817,-4.5818,-4.5891,-4.5903,-4.5946,0,-4.5987,0,-4.6002,-4.6023,-4.6024,0,0,0,-4.567,-4.5716,-4.5751,-4.5637,-4.5677,-4.5817,-4.5751,-4.5898,-4.5912,-4.5963,-4.599,-4.5996,-4.6005,-4.6024,-4.6025,-4.629,-4.6291,0,0,-4.5662,-4.5662,-4.5741,-4.576,-4.5739,-4.5747,-4.5756,-4.5906,-4.5935,-4.599,-4.6001,-4.6008,-4.6026,-4.6027,-4.6288,-4.629,0,0,0,-4.5642,-4.5656,-4.5686,-4.5752,-4.5778,-4.5751,-4.5762,-4.5928,-4.5938,-4.6003,-4.601,-4.6027,-4.6029,-4.6287,-4.6289,-4.6358,0,0,0,-4.5637,-4.5645,-4.5683,-4.5684,-4.5775,-4.5855,-4.578,-4.5928,-4.5945,-4.6009,-4.6027,-4.6031,-4.6285,-4.6288,-4.6353,-4.639,0,0,0,-4.5622,-4.5643,-4.5665,-4.5684,-4.5746,-4.5852,-4.5871,-4.5931,-4.5949,-4.6024,-4.6032,-4.6284,-4.6288,-4.6348,-4.6383,-4.6459,0,0,0,-4.5606,-4.5725,-4.5667,-4.5803,-4.5745,-4.5895,-4.587,-4.5982,-4.6054,-4.6028,-4.6286,-4.6289,-4.6347,-4.6378,-4.6454,-4.6521,-4.655,0,0,-4.5756,-4.5743,-4.5823,-4.5775,-4.5936,-4.5873,-4.6045,-4.6111,-4.6118,-4.6232,-4.6238,-4.6355,-4.6382,-4.6458,-4.6715,-4.6738,0,0,0,-4.587,-4.5928,-4.5971,-4.604,-4.6095,-4.6144,-4.6184,-4.6209,-4.6306,-4.6177,-4.6404,-4.642,-4.6465,-4.6497,-4.6516,-4.6553,-4.6304,-4.6304,-4.6304,-4.608,-4.6084,-4.6217,-4.6238,-4.6306,-4.6348,-4.6402,-4.6442,-4.6426,-4.648,-4.6513,-4.6669,-4.6706,-4.6721,-4.676,-4.6551,-4.6551,-4.6551,-4.6552,-4.6298,-4.6379,-4.6357,-4.6477,-4.648,-4.6581,-4.6626,-4.6611,-4.6705,-4.6644,-4.6683,-4.6614,-4.6746,-4.678,-4.6557,-4.6556,-4.6555,-4.6555,-4.6554,-4.6434,-4.6473,-4.6503,-4.6604,-4.6681,-4.6699,-4.6791,-4.6791,-4.6792,-4.6831,-4.6865,-4.6864,-4.6861,-4.6848,-4.6848,-4.6849,-4.6849,-4.685,-4.685,-4.6562,-4.6593,-4.667,-4.6739,-4.6784,-4.6843,-4.6887,-4.6931,-4.6979,-4.6972,-4.6972,-4.695,-4.6759,-4.671,-4.6858,-4.6857,-4.6856,-4.6855,-4.6854,-4.6777,-4.6729,-4.6848,-4.6893,-4.6974,-4.705,-4.7051,-4.7141,-4.7177,-4.7222,-4.7193,-4.7052,-4.7038,-4.7023,-4.6982,-4.7192,-4.7192,-4.7192,-4.7192,-4.6889,-4.6884,-4.7005,-4.7077,-4.7148,-4.7161,-4.7295,-4.7331,-4.736,-4.7383,-4.7353,-4.73,-4.7284,-4.728,-4.7259,-4.722,-4.7486,-4.7487,-4.7487,-4.7021,-4.7022,-4.7136,-4.7165,-4.7229,-4.7283,-4.7409,-4.7492,-4.7515,-4.7499,-4.74,-4.7388,-4.7302,-4.7274,-4.7251,-4.7219,-4.7148,0,0]},{"header":{"parameterUnit":"m.s-1","parameterCategory":1,"la1":30.2992,"la2":30.254,"lo1":-89.0895,"lo2":-89.0443,"dy":0.0025,"dx":0.0025,"nx":19,"ny":19,"refTime":"2026-05-18T21:00:00:Z","depth":0,"parameterNumber":3,"parameterNumberName":"V-component_of_WINDS"},"data":[0,0,0,2.9343,2.9343,2.9361,2.9361,2.9399,2.94,0,0,0,0,0,0,0,0,0,0,0,2.9346,2.9346,2.9343,2.9343,2.9361,2.9361,2.9399,2.94,0,0,0,0,0,0,0,0,0,0,0,2.9346,2.9346,2.9347,2.9343,2.9361,2.9361,2.9399,2.938,0,0,0,0,0,0,0,0,0,0,2.936,2.9371,2.9346,2.9347,2.9344,2.9361,2.9361,2.9379,2.9381,2.9397,0,2.9413,0,2.9407,2.9403,2.9403,0,0,0,2.9337,2.9369,2.9367,2.9347,2.9344,2.9361,2.9351,2.938,2.9383,2.94,2.9414,2.9415,2.9408,2.9403,2.9404,2.9518,2.9519,0,0,2.9336,2.9354,2.9365,2.9369,2.9367,2.9351,2.9352,2.9381,2.9397,2.9414,2.9415,2.9409,2.9404,2.9404,2.9517,2.9518,0,0,0,2.9337,2.9353,2.9349,2.9368,2.937,2.9351,2.9353,2.9396,2.9393,2.9416,2.9409,2.9404,2.9405,2.9516,2.9518,2.9578,0,0,0,2.9336,2.9354,2.9349,2.936,2.937,2.9383,2.9367,2.9391,2.9394,2.9409,2.9404,2.9405,2.9515,2.9517,2.9574,2.9603,0,0,0,2.9342,2.9355,2.936,2.9361,2.937,2.9382,2.9381,2.9391,2.939,2.9403,2.9405,2.9515,2.9517,2.9571,2.9598,2.964,0,0,0,2.9353,2.9412,2.9362,2.9426,2.937,2.9419,2.938,2.9416,2.9434,2.9404,2.9516,2.9518,2.957,2.9594,2.9636,2.9679,2.9698,0,0,2.9438,2.9423,2.9459,2.9415,2.9478,2.9415,2.9487,2.9486,2.947,2.9503,2.9506,2.9575,2.9597,2.9639,2.9798,2.9814,0,0,0,2.9493,2.9519,2.9532,2.9551,2.9552,2.9557,2.9543,2.9543,2.957,2.9491,2.9601,2.9613,2.9637,2.9657,2.967,2.969,2.9527,2.9527,2.9527,2.9639,2.9617,2.9676,2.9657,2.9676,2.9662,2.9676,2.9674,2.9644,2.9671,2.9681,2.978,2.9804,2.9814,2.9835,2.9701,2.9701,2.9701,2.9701,2.9763,2.9798,2.9759,2.9803,2.978,2.9817,2.9807,2.9785,2.9816,2.977,2.979,2.9743,2.9831,2.9848,2.9706,2.9705,2.9704,2.9704,2.9704,2.9857,2.987,2.987,2.9896,2.9919,2.9897,2.9929,2.9906,2.9884,2.9904,2.9913,2.9912,2.9909,2.991,2.991,2.991,2.9911,2.9911,2.9911,2.9955,2.9953,2.9983,2.9991,3.0001,3.0012,3.0,3.0009,3.0014,2.9994,2.9994,2.9964,2.9844,2.9814,2.9917,2.9916,2.9915,2.9914,2.9914,3.009,3.0056,3.0103,3.0114,3.0122,3.0148,3.0118,3.0139,3.0143,3.0161,3.0126,3.0041,3.0024,3.0013,2.9989,3.013,3.013,3.013,3.013,3.0171,3.016,3.0204,3.0222,3.0237,3.0216,3.0271,3.0263,3.0249,3.0251,3.0227,3.0192,3.0183,3.0172,3.0158,3.0135,3.031,3.031,3.031,3.0253,3.0243,3.0294,3.0281,3.0287,3.0292,3.0343,3.0366,3.0343,3.0317,3.0252,3.0244,3.0188,3.0171,3.0143,3.0122,3.0079,0,0]}]]